User: anonymous   Login
Location: Équennes
(49.7375°N, 1.9622°E)
Time: 13:31:28
(UTC+00:00)
Language:

deb r/b Ablestar - Orbit

View from above orbital plane
View from above orbital plane
View from above satellite
View from above satellite

Ground track
Ground track

The orbit data is extracted from the following two-line orbital elements,

1 00417U 61015ES  24053.68682451  .00000678  00000-0  35709-3 0  9997
2 00417  66.7446 222.0698 0073000 347.0124  12.9086 14.18644342217460
Epoch (UTC): 22 February 2024 16:29:01
Eccentricity: 0.0073000
inclination: 66.7446°
perigee height: 777 km
apogee height: 882 km
right ascension of ascending node: 222.0698°
argument of perigee: 347.0124°
revolutions per day: 14.18644342
mean anomaly at epoch: 12.9086°
orbit number at epoch: 21746

The dashed part of the orbit path shows where the satellite is in the earth's shadow,  

DLR